Temperature
17 17 17 17 17 17 17 17 17 17 17 17 17 17 17 17 17 17 17 17 17 17 17 17 17 17 17 17 18 18 18 18 18 17 17 17 17 17 17 17 17 17 17
17 17 17 17 17 16 16 16 16 16 16 16 16 17 17 17 17 17 17 17 17 17 17 17 17 17 17 17 17 17 17 18 17 17 17 17 17 17 17 17 17 17 17
17 17 16 16 16 16 16 16 16 16 16 16 16 16 16 16 16 17 17 17 17 17 17 17 17 17 17 17 17 17 17 17 17 17 17 17 17 17 17 17 17 17 17
17 16 16 16 16 16 16 16 15 15 16 16 16 16 16 16 16 16 16 16 16 17 17 17 17 17 17 17 17 17 17 17 17 17 17 17 17 17 17 17 17 17 17
16 16 16 16 15 15 15 15 15 15 15 15 15 16 16 16 16 16 16 16 16 17 17 17 17 16 16 16 17 17 17 17 17 17 17 17 17 17 17 17 17 17 17
16 16 15 15 15 15 15 15 15 15 15 15 15 15 15 16 16 16 16 16 16 16 17 17 17 16 16 16 16 17 17 17 17 17 17 17 17 17 17 17 17 17 17
16 15 15 15 15 14 14 14 14 14 14 14 15 15 15 16 16 16 16 16 16 16 16 16 16 17 16 16 16 16 16 17 17 17 17 17 17 17 17 17 17 17 17
15 15 15 15 14 14 14 14 14 14 14 14 14 14 14 15 16 16 16 16 16 16 16 16 16 16 16 16 16 16 16 16 16 17 17 17 17 17 17 17 17 17 17
15 15 14 14 14 14 13 13 13 13 13 13 13 13 13 13 14 15 15 15 16 16 16 16 16 16 16 16 16 16 16 16 16 16 16 16 16 17 17 17 17 17 17
14 14 14 14 14 13 13 13 13 13 13 13 13 13 13 13 13 13 15 15 15 15 15 15 16 16 16 16 16 16 16 16 16 16 16 16 16 16 16 17 17 17 17
14 14 14 13 13 13 13 13 13 12 12 12 12 12 13 13 13 12 13 14 15 15 15 15 15 15 16 16 16 16 16 16 16 16 16 16 16 16 16 16 16 16 16
14 14 13 13 13 13 13 13 12 12 12 12 12 12 12 12 12 12 12 13 13 14 14 15 15 15 15 15 15 15 15 15 15 15 15 15 16 16 16 16 16 16 16
14 13 13 13 13 13 13 12 12 12 12 12 12 12 11 11 12 12 11 12 12 13 13 14 14 14 14 15 15 15 15 15 15 15 15 15 15 15 16 16 16 16 16
13 13 13 13 13 13 12 12 12 12 12 11 11 11 11 11 11 11 11 11 11 12 13 13 14 14 14 14 14 14 15 15 15 15 15 15 15 15 15 15 16 16 16
13 13 13 13 13 12 12 12 12 12 11 11 11 11 11 11 11 11 11 11 11 11 12 12 13 13 13 13 14 14 14 14 14 15 15 15 15 15 15 15 15 16 16
13 13 13 13 13 12 12 12 12 12 11 11 11 11 11 11 11 11 11 11 11 11 11 12 12 12 13 13 13 13 13 14 14 14 14 14 15 15 15 15 15 15 15
13 13 13 13 12 12 12 12 11 11 11 11 11 11 11 11 11 11 11 11 11 11 11 11 12 12 12 12 13 13 13 13 13 14 14 14 14 14 15 15 15 15 15
13 13 13 13 12 12 12 12 11 11 11 11 11 11 11 11 11 11 11 11 11 10 10 11 11 11 12 12 12 12 13 13 13 13 13 14 14 14 14 14 15 15 15
13 13 13 12 12 12 12 12 11 11 11 11 11 11 10 10 10 10 10 10 10 10 10 10 10 11 11 11 12 12 12 12 13 13 13 13 13 14 14 14 14 14 15
13 13 13 12 12 12 12 12 11 11 11 11 11 10 10 10 10 10 10 10 10 10 10 10 10 10 11 11 11 11 12 12 12 12 13 13 13 13 13 14 14 14 14
13 13 13 13 12 12 12 12 11 11 11 11 10 10 10 10 10 10 9 9 9 9 9 9 10 10 10 10 11 11 11 11 12 12 12 12 13 13 13 13 14 14 14
13 13 13 13 12 12 12 11 11 11 11 11 10 10 10 10 10 9 9 9 9 9 9 9 9 9 10 10 10 10 10 10 11 12 12 12 12 13 13 13 13 13 14
14 13 13 13 13 12 12 12 11 11 11 11 10 10 10 10 10 9 9 9 9 9 9 9 9 9 9 10 10 10 10 10 10 11 11 11 12 12 13 13 13 13 13
14 14 13 13 13 13 12 12 11 11 11 11 10 10 10 10 10 9 9 9 9 9 9 9 9 9 9 9 9 9 9 9 10 10 10 11 12 12 12 13 13 13 13
14 14 13 13 13 13 12 12 11 11 11 11 11 10 10 10 10 9 9 9 9 9 9 9 9 9 9 9 9 9 9 9 9 10 10 10 11 11 12 12 13 13 13
14 14 14 13 13 13 13 12 12 11 11 11 11 10 10 10 9 9 9 9 9 9 8 8 8 8 8 8 8 8 8 8 9 9 10 10 11 11 11 12 12 13 13
Wind_Speed
3 2 2 1 2 2 2 2 3 3 2 3 4 4 5 6 6 7 8 13 16 18 19 20 20 21 20 20 20 20 20 20 19 19 19 18 17 17 16 16 15 15 15
4 3 1 1 0 1 2 2 3 2 1 2 2 3 5 6 7 9 9 13 17 20 21 21 21 22 22 22 22 22 22 21 21 21 20 20 19 19 18 17 17 16 16
6 4 2 1 1 1 1 1 1 1 1 1 2 3 4 5 6 8 11 12 15 19 22 22 22 22 23 23 23 23 24 23 23 23 22 22 21 21 20 19 18 18 18
8 5 3 1 2 3 3 1 1 1 1 2 3 3 3 3 5 7 9 12 14 15 19 22 23 23 24 24 24 24 24 25 25 25 24 24 23 23 22 21 21 20 19
8 6 3 2 4 4 2 2 2 1 1 2 3 3 3 4 4 5 6 10 13 14 15 19 22 24 24 24 24 25 25 26 26 26 26 25 25 24 24 23 23 22 21
8 7 4 4 5 3 3 3 2 2 1 2 3 4 4 4 3 4 5 6 9 12 15 15 16 19 23 24 25 25 25 26 27 27 27 27 27 26 26 25 25 24 23
8 6 4 3 3 3 3 3 2 3 3 3 3 4 5 4 3 3 3 2 4 8 11 13 14 14 15 22 25 25 25 26 27 28 28 29 28 28 27 27 26 26 25
7 6 4 3 3 3 4 4 3 2 3 3 2 2 4 5 4 3 3 2 3 3 4 8 11 12 14 14 17 24 26 26 26 27 29 29 29 29 29 29 28 27 27
6 6 5 4 3 3 2 2 2 3 2 3 2 2 1 3 4 4 4 4 4 3 3 4 6 10 12 13 14 18 23 25 27 27 28 29 30 30 30 30 30 29 28
3 5 5 5 3 3 2 1 2 1 2 1 2 1 2 3 1 4 5 4 5 5 5 4 5 7 9 11 12 14 17 21 23 26 27 28 29 30 31 31 31 30 30
1 3 5 4 3 2 2 1 1 1 1 1 1 1 1 1 1 1 4 6 5 5 5 5 4 5 7 9 10 12 14 16 17 20 22 24 27 30 31 32 32 32 31
1 2 4 4 3 2 2 1 1 1 1 1 2 2 1 1 2 1 3 4 5 5 5 4 4 4 7 7 8 9 11 13 15 16 18 20 22 25 30 32 32 32 32
1 1 2 3 2 2 2 2 1 2 2 2 3 3 3 3 3 3 3 4 4 4 4 4 3 4 6 7 8 9 10 12 13 14 16 18 19 22 25 28 31 32 33
2 2 2 2 2 2 2 2 2 3 2 3 4 4 3 4 3 3 3 3 4 4 3 5 4 3 6 8 9 9 8 10 12 13 14 15 17 19 21 24 27 30 32
3 3 3 2 2 2 2 2 3 4 3 4 4 5 4 4 4 4 4 4 3 4 5 5 4 4 6 7 9 9 9 11 12 13 13 14 16 17 19 22 24 26 29
3 3 3 3 3 3 3 3 3 4 4 5 4 5 5 4 4 4 4 4 4 5 5 4 4 5 5 7 10 9 11 13 13 14 14 14 15 17 18 20 22 24 27
4 4 4 4 4 4 4 4 5 5 5 6 5 5 6 5 5 4 4 4 4 4 6 5 4 4 4 6 7 9 10 10 12 14 14 14 15 16 18 19 21 22 24
5 5 5 5 5 5 5 5 6 5 6 6 6 6 7 5 5 5 4 5 5 5 5 7 5 4 5 6 6 6 6 9 10 13 15 15 15 16 17 19 20 22 23
6 5 5 5 6 6 6 6 6 6 6 6 6 6 7 6 6 6 6 6 6 6 5 5 5 4 4 4 5 5 5 4 7 11 13 14 15 17 17 18 20 21 22
6 6 6 7 7 6 6 6 6 6 6 6 6 6 7 7 8 8 7 7 6 6 5 5 5 5 4 4 3 4 5 4 4 6 8 10 12 14 16 17 19 20 22
7 7 6 6 6 6 6 6 6 6 6 6 6 7 7 9 11 9 7 7 7 6 5 5 5 4 4 4 4 3 4 4 5 4 4 4 4 5 8 13 16 18 21
7 6 7 7 7 6 9 10 8 7 6 7 7 7 8 9 11 12 12 11 10 8 7 6 6 6 7 6 5 5 4 3 4 3 2 4 3 5 5 8 13 16 19
7 7 7 7 8 9 12 13 13 8 8 8 8 7 8 8 9 7 9 11 10 12 13 9 8 9 8 7 6 6 6 6 6 5 3 5 4 5 5 9 13 15 17
7 7 8 8 8 10 13 14 14 9 8 9 9 9 9 9 10 9 8 8 9 9 9 8 9 10 10 9 8 8 7 6 6 5 5 5 4 4 4 5 11 13 15
7 7 7 8 9 10 13 14 13 6 7 9 9 9 9 9 12 13 9 9 9 9 11 13 13 12 14 14 10 5 5 5 6 5 5 5 4 3 3 4 6 10 12
8 8 8 9 9 10 13 15 13 6 8 8 8 8 12 12 12 12 8 8 9 10 8 8 8 8 9 10 12 9 8 7 6 5 5 5 4 3 3 3 3 4 5
Wind_Direction
123 112 126 165 199 201 207 222 226 236 239 245 245 238 227 222 217 216 220 210 211 212 209 209 206 205 205 205 203 201 198 196 194 190 188 186 184 182 181 179 176 174 172
110 100 88 81 307 237 229 233 236 239 251 256 264 252 238 231 224 216 214 215 215 216 217 217 215 213 211 210 209 207 205 203 200 196 194 192 190 189 188 187 184 183 181
97 94 85 66 10 351 326 340 333 352 316 303 288 274 256 242 234 222 217 218 220 223 224 224 223 221 219 216 214 212 209 206 204 202 200 197 195 194 193 192 191 190 188
105 97 85 63 34 42 35 43 42 37 356 330 306 291 275 261 252 239 227 224 223 226 229 229 227 226 225 223 221 218 214 210 208 205 204 203 201 199 198 197 196 195 194
109 102 93 67 54 52 36 32 46 53 1 334 309 296 294 278 262 260 241 232 227 228 230 232 230 229 230 229 227 224 219 216 212 209 208 207 206 204 202 202 200 199 198
115 107 92 66 59 54 32 26 20 17 8 334 323 323 301 284 273 264 256 248 238 235 233 232 233 234 234 233 231 228 225 222 218 214 212 211 210 208 206 205 205 203 202
124 114 101 78 69 64 37 22 25 18 360 1 11 335 321 312 305 287 285 273 259 251 240 232 228 228 233 234 233 232 230 228 224 219 217 215 213 211 209 208 208 207 206
142 136 124 111 91 67 40 39 48 40 359 23 45 14 344 338 336 330 332 322 308 283 259 246 233 227 228 231 233 235 234 233 231 225 221 218 215 213 211 211 210 210 209
155 149 141 131 115 100 70 47 67 84 16 350 44 95 48 303 313 322 338 348 340 325 307 286 257 242 234 230 231 236 236 236 234 231 227 222 219 216 213 212 212 212 211
164 163 153 143 131 117 103 82 101 105 100 353 346 30 187 200 258 314 322 333 338 333 317 307 291 268 249 236 231 235 238 238 238 237 234 229 224 219 216 214 214 214 214
84 154 148 134 129 125 124 96 86 91 142 181 258 304 330 341 162 204 300 322 330 319 314 302 292 288 274 252 241 237 237 238 239 239 237 234 231 226 222 220 219 218 217
38 101 134 136 141 148 165 193 201 231 225 233 234 223 215 242 267 238 266 298 306 304 311 307 308 300 293 271 253 242 235 235 236 239 241 239 235 233 228 224 223 222 221
105 139 137 149 162 193 210 205 217 254 253 253 250 241 226 223 218 211 230 272 289 296 307 308 300 303 298 288 270 257 246 241 239 241 245 245 241 238 234 230 226 225 224
177 172 153 165 197 220 230 214 229 249 244 251 262 255 249 249 229 215 215 237 292 303 303 290 304 296 309 302 285 273 267 257 247 242 245 247 246 243 239 235 231 227 225
176 161 159 177 220 238 244 237 240 254 255 252 256 258 253 256 248 236 219 201 213 272 287 281 290 301 312 310 301 281 268 265 261 253 247 246 247 248 244 238 232 229 227
192 189 204 217 241 256 256 244 251 256 256 260 253 259 262 259 259 251 238 223 204 214 255 264 262 276 294 299 300 290 274 272 267 262 256 251 249 249 246 241 236 231 228
202 205 217 228 241 252 254 247 251 254 252 261 266 258 261 260 259 259 253 244 233 213 249 271 259 274 284 287 295 293 284 273 267 263 260 257 254 251 247 242 237 234 231
211 213 218 227 240 245 246 244 251 251 243 250 257 257 261 264 259 257 253 251 248 233 231 265 277 279 274 276 277 282 280 274 264 263 259 259 258 253 248 244 240 236 232
215 221 220 228 240 245 245 243 241 246 245 245 248 248 255 256 259 258 253 252 252 256 232 242 265 265 273 279 287 287 281 276 271 267 262 259 259 256 250 246 242 237 233
214 223 225 231 236 239 240 243 244 243 245 248 248 247 249 246 249 252 254 249 249 253 248 246 258 266 269 279 278 283 295 287 281 278 266 260 259 259 254 250 245 239 235
221 221 226 234 236 235 236 233 234 236 239 249 255 253 253 256 255 252 252 244 241 241 245 246 256 265 268 275 268 263 273 286 283 258 266 264 255 254 253 251 247 241 235
228 225 227 233 238 240 237 231 222 229 235 242 253 260 265 268 269 268 266 259 240 232 232 235 243 245 254 250 251 254 261 279 288 271 246 270 247 256 252 247 246 241 236
225 227 232 234 239 245 248 248 240 226 232 239 245 255 268 270 271 267 271 275 267 252 235 226 234 242 246 241 240 253 248 243 249 255 250 268 255 256 256 256 252 245 239
220 228 235 238 243 250 249 250 247 232 234 242 242 244 250 263 269 261 262 265 260 259 249 239 232 240 243 239 230 237 244 254 259 254 218 250 255 250 253 251 256 251 243
225 228 233 238 243 254 254 253 245 227 237 247 248 247 244 253 263 266 258 256 263 266 264 252 241 242 246 246 236 234 243 244 262 261 217 222 245 248 253 254 255 254 250
228 232 240 241 241 250 255 253 241 220 237 251 255 252 250 250 258 265 247 243 255 261 263 269 265 264 258 256 250 230 227 233 241 256 229 207 223 216 256 251 243 245 248
Height
1557 1557 1558 1558 1558 1558 1558 1558 1558 1559 1559 1560 1561 1562 1563 1564 1565 1565 1566 1567 1568 1569 1570 1571 1573 1575 1577 1578 1580 1581 1582 1584 1585 1587 1588 1590 1591 1593 1594 1595 1597 1599 1600
1556 1556 1556 1556 1556 1556 1556 1556 1556 1556 1557 1557 1558 1559 1560 1561 1561 1562 1563 1564 1565 1566 1567 1569 1570 1572 1573 1575 1577 1578 1580 1582 1583 1585 1587 1588 1590 1592 1593 1595 1596 1598 1600
1554 1554 1555 1554 1554 1554 1554 1554 1554 1554 1554 1555 1556 1556 1557 1558 1558 1559 1560 1561 1561 1562 1563 1565 1566 1568 1570 1571 1573 1575 1577 1579 1581 1583 1585 1586 1588 1590 1592 1593 1595 1597 1599
1553 1553 1553 1553 1553 1553 1552 1552 1552 1552 1552 1552 1553 1553 1554 1554 1555 1556 1557 1557 1558 1559 1560 1561 1562 1564 1566 1567 1569 1571 1573 1575 1578 1580 1582 1584 1586 1588 1590 1592 1593 1595 1597
1553 1552 1552 1552 1551 1551 1551 1550 1550 1550 1550 1550 1550 1550 1551 1551 1552 1553 1553 1554 1555 1556 1557 1557 1558 1560 1561 1563 1564 1566 1569 1571 1574 1576 1578 1581 1583 1585 1587 1589 1591 1593 1595
1552 1551 1551 1550 1550 1549 1549 1549 1549 1548 1548 1548 1548 1548 1548 1548 1549 1549 1550 1551 1551 1552 1553 1554 1555 1555 1556 1558 1560 1562 1564 1566 1569 1571 1574 1577 1579 1582 1584 1586 1588 1591 1593
1551 1550 1549 1548 1548 1547 1547 1547 1547 1547 1547 1546 1546 1545 1545 1546 1546 1546 1547 1547 1548 1548 1549 1550 1551 1551 1552 1554 1555 1557 1559 1561 1564 1566 1569 1572 1575 1577 1580 1582 1585 1587 1590
1549 1549 1548 1547 1547 1546 1546 1545 1545 1545 1545 1545 1544 1543 1543 1544 1543 1544 1544 1544 1544 1545 1546 1546 1547 1547 1548 1549 1551 1552 1554 1556 1558 1561 1563 1566 1569 1572 1575 1578 1581 1583 1586
1548 1547 1547 1546 1546 1545 1545 1544 1544 1544 1544 1544 1544 1544 1543 1542 1541 1541 1541 1542 1542 1542 1542 1543 1543 1544 1545 1545 1546 1547 1549 1550 1552 1555 1557 1560 1563 1567 1570 1573 1576 1579 1581
1546 1546 1546 1545 1545 1544 1544 1543 1543 1543 1542 1542 1542 1542 1543 1542 1542 1539 1539 1539 1539 1539 1540 1540 1540 1540 1541 1541 1542 1543 1544 1545 1546 1549 1551 1554 1557 1560 1563 1567 1570 1573 1576
1544 1544 1544 1544 1543 1543 1542 1542 1541 1541 1540 1540 1540 1540 1540 1540 1540 1539 1536 1536 1536 1537 1537 1537 1537 1537 1537 1538 1538 1538 1539 1540 1541 1543 1545 1548 1550 1553 1556 1560 1563 1567 1570
1542 1542 1542 1542 1541 1541 1540 1540 1539 1539 1538 1538 1537 1537 1537 1537 1537 1536 1535 1533 1532 1532 1533 1533 1533 1533 1534 1534 1534 1534 1535 1535 1537 1538 1540 1542 1544 1546 1549 1552 1556 1559 1563
1540 1540 1540 1540 1539 1539 1538 1538 1537 1536 1536 1535 1535 1535 1534 1534 1534 1534 1533 1531 1530 1529 1529 1530 1530 1530 1530 1530 1530 1530 1530 1531 1532 1533 1534 1535 1537 1539 1542 1545 1548 1552 1555
1538 1537 1537 1537 1537 1536 1536 1535 1535 1534 1533 1533 1532 1532 1531 1531 1531 1530 1530 1529 1527 1526 1525 1525 1526 1526 1526 1526 1526 1526 1526 1526 1527 1527 1528 1529 1531 1533 1535 1537 1541 1544 1548
1535 1535 1535 1535 1534 1534 1533 1532 1532 1531 1531 1530 1529 1528 1528 1528 1527 1527 1526 1526 1525 1522 1520 1521 1521 1522 1522 1522 1522 1522 1522 1522 1522 1522 1523 1523 1524 1526 1528 1530 1533 1536 1540
1532 1532 1532 1532 1532 1531 1530 1530 1529 1528 1527 1527 1526 1525 1524 1524 1523 1523 1522 1522 1521 1520 1517 1516 1517 1517 1517 1517 1517 1517 1517 1517 1517 1517 1518 1518 1518 1519 1521 1523 1525 1528 1532
1530 1530 1529 1529 1528 1528 1527 1526 1526 1525 1524 1523 1522 1521 1520 1520 1519 1518 1518 1517 1517 1516 1513 1511 1512 1512 1512 1512 1512 1512 1512 1512 1512 1512 1512 1512 1513 1513 1514 1515 1517 1520 1523
1527 1527 1526 1526 1525 1525 1524 1523 1522 1521 1520 1519 1518 1517 1516 1515 1514 1514 1513 1512 1511 1511 1509 1507 1506 1506 1506 1506 1506 1506 1506 1506 1506 1506 1507 1507 1507 1507 1507 1509 1510 1513 1515
1524 1523 1523 1522 1522 1521 1520 1519 1518 1517 1516 1515 1514 1513 1512 1511 1509 1509 1508 1507 1506 1505 1504 1502 1501 1501 1501 1501 1500 1500 1500 1500 1500 1500 1501 1501 1501 1501 1501 1502 1503 1505 1507
1520 1520 1520 1519 1518 1518 1516 1515 1514 1513 1512 1511 1510 1508 1507 1505 1504 1503 1502 1501 1500 1499 1499 1498 1496 1496 1496 1496 1495 1495 1494 1495 1494 1495 1495 1495 1495 1495 1495 1495 1496 1498 1500
1517 1517 1516 1515 1515 1514 1512 1511 1510 1509 1507 1506 1505 1503 1501 1499 1498 1497 1496 1495 1495 1494 1493 1492 1491 1491 1490 1490 1490 1490 1489 1488 1488 1489 1489 1489 1489 1488 1489 1489 1490 1491 1492
1513 1513 1512 1511 1510 1509 1508 1507 1506 1504 1503 1501 1499 1497 1495 1494 1492 1491 1490 1489 1489 1488 1487 1487 1486 1485 1484 1485 1485 1485 1484 1483 1482 1484 1483 1483 1483 1482 1483 1483 1483 1484 1485
1509 1508 1508 1507 1506 1504 1503 1502 1501 1500 1498 1496 1494 1492 1490 1488 1487 1485 1484 1484 1483 1483 1482 1481 1480 1479 1479 1479 1479 1478 1478 1477 1477 1478 1478 1476 1477 1476 1477 1477 1477 1477 1478
1505 1504 1503 1502 1501 1500 1499 1497 1496 1495 1493 1491 1489 1487 1485 1483 1482 1480 1479 1477 1476 1476 1476 1475 1474 1473 1472 1472 1473 1472 1472 1471 1470 1471 1472 1470 1470 1470 1471 1471 1471 1471 1472
1500 1499 1498 1497 1496 1494 1494 1492 1491 1489 1487 1486 1484 1482 1480 1478 1476 1475 1473 1471 1470 1469 1469 1468 1467 1466 1465 1465 1466 1465 1465 1465 1463 1464 1466 1465 1464 1464 1464 1464 1465 1465 1466
1495 1494 1493 1492 1490 1489 1488 1487 1486 1484 1482 1480 1478 1476 1474 1472 1470 1469 1467 1465 1463 1462 1462 1461 1460 1459 1458 1458 1458 1458 1458 1458 1457 1457 1458 1459 1459 1460 1459 1458 1459 1460 1460